Brumley, MO

1:33 PM CDT on September 22, 2014 (GMT -0500)
Fine Memorial | Change Station
CLOSE
Current Station
Airport
Location: Kaiser,
Elevation: 869 ft
Nearby Weather Stations

Elev 869 ft 38.10 °N, 92.55 °W | Updated 18 minutes ago

Clear
Clear
70 °F
Feels Like 70 °F
N
0
Wind Variable Wind from North

Today
High -- | Low -- °F
--% Chance of Precip.
Yesterday
High -- | Low -- °F
Precip. -- in
6:57 AM 7:07 PM
Waning Crescent, 2% visible
Pressure 30.30 in
Visibility 10.0 miles
Clouds Clear
Dew Point 46 °F
Humidity 43%
Rainfall 0.00 in
Snow Depth Not available.
UV 8 out of 12
Pollen 5.60 out of 12
Air Quality Not available.
Flu Activity Not available.
METAR KAIZ 221815Z AUTO 00000KT 10SM CLR 21/08 A3030 RMK AO1

More Conditions Fewer Conditions

Pressure 30.30 in
Visibility 10.0 miles
Clouds Clear
Dew Point 46 °F
Humidity 43%
Rainfall 0.00 in
Snow Depth Not available.
UV 8 out of 12
Pollen 5.60 out of 12
Air Quality Not available.
Flu Activity Not available.
METAR KAIZ 221815Z AUTO 00000KT 10SM CLR 21/08 A3030 RMK AO1

More Conditions Fewer Conditions

10-Day Weather Forecast

Almanac

Astronomy

Sep. 22, 2014 Rise Set
Actual Time 6:57 AM CDT 7:07 PM CDT
Civil Twilight 6:31 AM CDT 7:33 PM CDT
Nautical Twilight 6:00 AM CDT 8:04 PM CDT
Astronomical Twilight 5:29 AM CDT 8:35 PM CDT
Moon 5:28 AM CDT 6:14 PM CDT
Length of Visible Light 13h 01m
Length of Day
12h 09m
Tomorrow will be 2m 26s shorter.
Waning Crescent, 2% of the Moon is Illuminated
Today
Waning Crescent
Sep 24
New
Oct 1
First Quarter
Oct 8
Full
Oct 15
Last Quarter

Today's Extremes

State Highs State Lows

Community

WunderPhotos

Upload Photos

1,755,507 photos uploaded!

WunderBlogs® & News

Nearby

Snow Depth

Station Depth Elevation
No new snow has been reported.

Earthquake Activity

City Distance Mag. Time & Date
No recent earthquake activity has been reported nearby.
Minimum magnitude displayed is 2.5.

Coastal Water Temperatures

Place Temperature
No Stations Reporting

Nearby Weather Stations